Location: *
(35.2348°S, 91.3916°E)
Time: 01:03:17
(UTC+00:00)

Cosmos 1844 Rocket - Pass Details

Date: 23 October 2019
Orbit: 826 x 843 km, 71.0° (Epoch: 18 November)

Event Time Altitude Azimuth Distance (km) Brightness Sun altitude
Exits shadow 21:41:35 - 351° (N) 2,660 5.0 -16.0°
Reaches altitude 10° 21:42:12 10° 352° (N) 2,427 4.8 -15.9°
Maximum altitude 21:47:41 64° 72° (ENE) 922 3.1 -14.9°
Drops below altitude 10° 21:53:17 10° 152° (SSE) 2,466 5.9 -13.9°
Sets 21:55:45 0° 155° (SSE) 3,409 6.7 -13.4°
